| time (UTC) | temp F | wind direction | speed knots | gust knots | rain 1hr in | rain 24hr in | rain mn in | humidity % | barometer mb |
| 20260831195516 | 60 | 227 | 1.7 | 4.3 | 0.00 | 0.13 | 0.13 | 93 | 1006.9 |
| 20260831193515 | 61 | 200 | 1.7 | 5.2 | 0.00 | 0.13 | 0.13 | 92 | 1006.8 |
| 20260831191516 | 61 | 200 | 1.7 | 5.2 | 0.00 | 0.13 | 0.13 | 92 | 1006.8 |
| 20260831185515 | 61 | 139 | 0.9 | 4.3 | 0.00 | 0.13 | 0.13 | 92 | 1006.4 |
| 20260831183515 | 61 | 197 | 0.0 | 1.7 | 0.00 | 0.13 | 0.13 | 91 | 1006.2 |
| 20260831170514 | 63 | 225 | 2.6 | 6.1 | 0.00 | 0.14 | 0.13 | 89 | 1006.0 |
| 20260831165515 | 63 | 292 | 4.3 | 7.0 | 0.00 | 0.14 | 0.13 | 89 | 1006.1 |
| 20260831164515 | 63 | 203 | 4.3 | 6.1 | 0.00 | 0.14 | 0.13 | 90 | 1006.1 |
| 20260831162515 | 63 | 235 | 4.3 | 7.0 | 0.02 | 0.14 | 0.13 | 90 | 1006.2 |
| 20260831161515 | 63 | 269 | 2.6 | 5.2 | 0.02 | 0.14 | 0.13 | 90 | 1006.1 |
| 20260831160514 | 63 | 243 | 2.6 | 6.1 | 0.02 | 0.14 | 0.13 | 90 | 1006.1 |
| 20260831150514 | 65 | 209 | 6.1 | 13.9 | 0.02 | 0.13 | 0.11 | 87 | 1006.1 |
| 20260831145514 | 66 | 221 | 7.8 | 11.3 | 0.01 | 0.12 | 0.10 | 84 | 1006.1 |
| 20260831144514 | 67 | 213 | 4.3 | 11.3 | 0.00 | 0.11 | 0.09 | 82 | 1006.0 |
| 20260831143514 | 67 | 242 | 7.8 | 11.3 | 0.00 | 0.11 | 0.09 | 81 | 1006.1 |
| 20260831141514 | 69 | 230 | 7.0 | 11.3 | 0.00 | 0.11 | 0.09 | 81 | 1006.1 |
| 20260831140514 | 69 | 212 | 6.1 | 10.4 | 0.00 | 0.11 | 0.09 | 82 | 1006.1 |
| 20260831135514 | 69 | 218 | 5.2 | 10.4 | 0.00 | 0.11 | 0.09 | 82 | 1005.9 |
| 20260831134514 | 68 | 225 | 6.1 | 12.2 | 0.00 | 0.11 | 0.09 | 81 | 1005.8 |
| 20260831133515 | 69 | 221 | 6.1 | 11.3 | 0.00 | 0.11 | 0.09 | 82 | 1005.9 |
| 20260831132516 | 69 | 219 | 7.0 | 12.2 | 0.00 | 0.11 | 0.09 | 83 | 1006.0 |
| 20260831131514 | 69 | 221 | 4.3 | 10.4 | 0.00 | 0.11 | 0.09 | 83 | 1005.9 |
| 20260831130514 | 69 | 214 | 5.2 | 12.2 | 0.00 | 0.12 | 0.09 | 84 | 1005.9 |
| 20260831125515 | 70 | 272 | 6.1 | 10.4 | 0.00 | 0.12 | 0.09 | 84 | 1006.0 |
| 20260831123514 | 69 | 187 | 4.3 | 7.8 | 0.00 | 0.12 | 0.09 | 88 | 1005.8 |
| 20260831115514 | 68 | 194 | 1.7 | 7.0 | 0.01 | 0.20 | 0.09 | 89 | 1006.2 |
| 20260831113514 | 65 | 173 | 2.6 | 7.0 | 0.06 | 0.20 | 0.09 | 90 | 1006.3 |
| 20260831110515 | 64 | 139 | 1.7 | 5.2 | 0.09 | 0.20 | 0.09 | 92 | 1006.4 |
| 20260831105515 | 63 | 139 | 1.7 | 5.2 | 0.08 | 0.20 | 0.09 | 92 | 1006.5 |
| 20260831104514 | 63 | 190 | 5.2 | 10.4 | 0.07 | 0.19 | 0.08 | 91 | 1006.6 |
| 20260831103515 | 64 | 192 | 5.2 | 7.8 | 0.03 | 0.15 | 0.04 | 90 | 1006.2 |
| 20260831102515 | 65 | 188 | 6.1 | 10.4 | 0.01 | 0.13 | 0.02 | 90 | 1006.4 |
| 20260831100514 | 66 | 158 | 1.7 | 7.8 | 0.00 | 0.12 | 0.01 | 90 | 1006.5 |
| 20260831094514 | 66 | 143 | 4.3 | 8.7 | 0.00 | 0.12 | 0.01 | 93 | 1006.6 |
| 20260831092515 | 64 | 139 | 3.5 | 7.0 | 0.00 | 0.12 | 0.01 | 94 | 1006.8 |
| 20260831091514 | 63 | 166 | 4.3 | 7.8 | 0.00 | 0.12 | 0.01 | 94 | 1007.0 |
| 20260831090515 | 63 | 162 | 4.3 | 8.7 | 0.00 | 0.12 | 0.01 | 94 | 1007.0 |
| 20260831085515 | 63 | 110 | 2.6 | 6.1 | 0.00 | 0.12 | 0.01 | 94 | 1007.2 |
| 20260831084514 | 63 | 154 | 2.6 | 7.0 | 0.01 | 0.12 | 0.01 | 94 | 1007.2 |
| 20260831083515 | 63 | 138 | 4.3 | 8.7 | 0.01 | 0.13 | 0.01 | 94 | 1007.2 |
| 20260831081515 | 62 | 178 | 2.6 | 10.4 | 0.01 | 0.13 | 0.01 | 93 | 1007.3 |
| 20260831080515 | 62 | 135 | 4.3 | 10.4 | 0.01 | 0.13 | 0.01 | 93 | 1007.3 |
| 20260831075514 | 62 | 119 | 3.5 | 7.8 | 0.01 | 0.13 | 0.01 | 93 | 1007.2 |
| 20260831072515 | 62 | 134 | 1.7 | 5.2 | 0.00 | 0.12 | 0.00 | 93 | 1007.5 |
| 20260831071516 | 62 | 157 | 2.6 | 5.2 | 0.00 | 0.12 | 0.00 | 93 | 1007.5 |
| 20260831063514 | 61 | 161 | 0.9 | 5.2 | 0.00 | 0.12 | 0.00 | 93 | 1007.3 |
| 20260831062514 | 61 | 168 | 0.9 | 5.2 | 0.00 | 0.12 | 0.00 | 93 | 1007.5 |
| 20260831060515 | 61 | 185 | 0.9 | 2.6 | 0.00 | 0.13 | 0.00 | 93 | 1007.6 |
| 20260831055514 | 62 | 148 | 1.7 | 4.3 | 0.00 | 0.14 | 0.00 | 93 | 1007.5 |
| 20260831053514 | 61 | 203 | 1.7 | 4.3 | 0.00 | 0.17 | 0.00 | 94 | 1007.7 |
| 20260831043516 | 60 | 202 | 2.6 | 6.1 | 0.00 | 0.17 | 0.00 | 94 | 1007.9 |
| 20260831033515 | 60 | 222 | 4.3 | 7.8 | 0.00 | 0.17 | 0.00 | 94 | 1007.7 |
| 20260831032515 | 61 | 209 | 4.3 | 8.7 | 0.00 | 0.17 | 0.00 | 94 | 1007.9 |
| 20260831031515 | 61 | 195 | 6.1 | 7.8 | 0.00 | 0.17 | 0.00 | 93 | 1008.1 |
| 20260831030515 | 61 | 213 | 4.3 | 7.8 | 0.00 | 0.17 | 0.00 | 93 | 1008.2 |
| 20260831025514 | 61 | 230 | 4.3 | 7.0 | 0.00 | 0.17 | 0.00 | 93 | 1008.2 |
| 20260831022515 | 61 | 231 | 5.2 | 8.7 | 0.00 | 0.17 | 0.00 | 93 | 1008.2 |
| 20260831021515 | 61 | 231 | 3.5 | 8.7 | 0.00 | 0.17 | 0.00 | 93 | 1008.2 |
| 20260831015515 | 61 | 230 | 4.3 | 8.7 | 0.00 | 0.17 | 0.00 | 93 | 1008.3 |
| 20260831012514 | 61 | 220 | 4.3 | 10.4 | 0.00 | 0.17 | 0.00 | 93 | 1008.3 |
| 20260831010515 | 61 | 231 | 2.6 | 5.2 | 0.00 | 0.17 | 0.00 | 93 | 1008.2 |
| 20260831005515 | 60 | 226 | 2.6 | 5.2 | 0.00 | 0.17 | 0.00 | 93 | 1008.2 |
| 20260831001515 | 59 | 199 | 2.6 | 5.2 | 0.00 | 0.17 | 0.00 | 93 | 1008.3 |
| 20260831000515 | 59 | 205 | 1.7 | 4.3 | 0.00 | 0.17 | 0.00 | 93 | 1008.3 |
| 20260830233514 | 59 | 226 | 2.6 | 4.3 | 0.00 | 0.17 | 0.00 | 92 | 1008.1 |
| 20260830232515 | 59 | 226 | 1.7 | 2.6 | 0.00 | 0.17 | 0.00 | 92 | 1008.1 |
| 20260830230514 | 60 | 226 | 1.7 | 4.3 | 0.00 | 0.17 | 0.00 | 92 | 1008.2 |
| 20260830221509 | 61 | 256 | 5.2 | 8.7 | 0.00 | 0.17 | 0.00 | 90 | 1008.1 |
| 20260830220515 | 61 | 263 | 6.1 | 7.8 | 0.00 | 0.17 | 0.00 | 90 | 1008.0 |
| 20260830214516 | 62 | 250 | 6.1 | 10.4 | 0.00 | 0.17 | 0.17 | 89 | 1008.1 |
| 20260830211515 | 62 | 260 | 7.8 | 13.0 | 0.00 | 0.17 | 0.17 | 90 | 1008.1 |
| 20260830205514 | 62 | 249 | 6.1 | 11.3 | 0.00 | 0.17 | 0.17 | 91 | 1008.0 |
| 20260830204514 | 62 | 249 | 4.3 | 6.1 | 0.00 | 0.17 | 0.17 | 91 | 1007.8 |
| 20260830203515 | 62 | 234 | 2.6 | 5.2 | 0.00 | 0.17 | 0.17 | 91 | 1007.7 |
| 20260830201516 | 62 | 240 | 6.1 | 10.4 | 0.00 | 0.17 | 0.17 | 91 | 1007.7 |